Vertical_Velocity
-1 -0 -2 1 -1 -2 -2 -0 3 -0 1 1 0 -0 1 2 -1 0 5 7 1 -4 -1 -7 -0 -2 6 0 -1 -1 -4 -5 0
-2 1 1 1 -0 -3 -2 1 -2 1 -1 -0 0 -0 0 1 0 -0 -2 1 0 -3 3 -2 1 4 1 -0 -1 -2 -1 -2 -2
-2 -1 1 1 -0 0 -3 -3 -1 -0 0 0 1 1 1 -1 1 0 -2 -4 -1 0 -4 2 1 4 1 -2 -2 -2 -0 -2 -2
1 0 -1 1 1 1 -1 -3 -3 -2 -1 1 2 1 1 2 0 -1 -5 0 -1 1 -4 -1 -2 1 -0 -1 1 -4 -2 -1 -3
0 1 1 -1 0 0 -1 -2 -1 -1 -1 -1 -1 0 4 2 -3 -4 -1 0 -1 -2 -0 -0 -3 -1 -1 -1 -1 -2 1 -1 -2
0 1 1 1 -0 1 2 -3 -4 -3 -1 2 -2 0 2 2 -1 -6 -3 -1 -1 3 1 1 -0 -1 -0 -1 1 0 -0 -1 -3
2 1 1 2 1 1 3 2 -2 -4 -1 -2 1 2 -0 -3 1 -3 -1 -1 -0 -2 3 2 1 1 1 -1 -1 2 1 0 -2
1 1 1 -0 1 2 1 2 2 -3 -1 -1 0 -1 2 -1 -1 -4 -1 5 -2 -2 3 -0 3 -0 -2 -0 -1 -0 1 -0 -2
1 -0 1 0 1 1 1 1 3 2 0 0 -3 -2 0 -3 1 -5 -3 -1 4 -3 -1 2 0 1 1 1 -1 -1 -1 0 1
0 0 -0 -0 -0 1 2 3 1 1 -0 2 2 -1 -2 -2 -1 -3 -3 11 0 -2 1 2 1 -0 1 1 -1 -0 -1 -1 -0
2 -0 -0 -0 1 -1 2 2 3 -0 0 -1 1 1 -2 -1 -1 -4 -0 6 1 0 0 1 2 0 -0 0 -2 -1 -0 -1 0
0 0 -1 0 0 1 -1 4 3 3 3 -2 3 -0 -4 0 -1 -5 0 1 -1 1 1 -1 2 1 0 -0 -1 -1 -0 0 -1
5 -2 -1 1 1 -2 5 -1 1 5 3 0 -2 2 -7 -0 -0 -3 -3 -1 1 5 -0 -2 1 2 1 -0 2 -2 -1 -2 -1
2 2 3 -2 -0 1 -3 3 2 -3 4 3 2 -0 -1 -2 -1 -1 -1 -1 -1 -2 2 -2 -2 2 3 -2 1 -2 -2 -1 -1
7 -2 12 9 1 0 -3 -1 1 3 -2 6 4 1 2 -3 -0 1 -2 1 -1 -0 3 -1 -3 -0 -1 1 -1 2 0 -1 -3
0 9 3 3 6 2 7 3 2 1 2 1 9 4 1 3 -1 -4 -1 1 1 -1 3 3 -1 -3 1 -2 1 0 2 1 -1
-1 -3 0 -17 5 4 3 3 3 -0 5 0 1 6 7 3 3 -6 -3 -3 0 1 2 3 1 1 -0 1 -2 -2 1 2 1
-1 3 -3 -6 -16 7 2 5 0 -3 7 2 -7 -2 -1 -1 2 -0 -4 -5 -3 0 1 2 1 2 -1 1 1 0 0 2 1
-1 2 2 2 -16 -14 -4 4 1 0 -2 5 4 1 -2 -10 -1 -1 -1 -3 -5 -0 0 1 2 1 2 1 2 0 -1 2 2
-1 0 -1 -5 -7 20 -22 6 -2 0 2 -2 -4 6 1 0 -2 -1 -1 -1 -2 -4 -0 -2 0 1 0 -1 3 1 0 -3 2
Height
1557 1557 1559 1561 1563 1564 1566 1568 1569 1569 1571 1572 1573 1574 1574 1575 1576 1578 1579 1580 1580 1581 1581 1581 1582 1582 1583 1582 1581 1581 1580 1580 1579
1556 1557 1559 1561 1563 1564 1565 1569 1570 1571 1572 1574 1575 1576 1576 1577 1579 1580 1582 1583 1583 1583 1583 1584 1585 1585 1584 1584 1583 1582 1581 1580 1580
1555 1557 1559 1561 1562 1564 1565 1568 1570 1573 1574 1575 1576 1578 1579 1580 1582 1584 1584 1585 1585 1584 1584 1586 1587 1587 1586 1586 1585 1584 1582 1581 1580
1555 1557 1559 1561 1562 1564 1566 1568 1572 1574 1575 1577 1579 1580 1582 1583 1584 1585 1587 1587 1586 1586 1586 1587 1587 1588 1588 1587 1586 1584 1582 1581 1581
1555 1557 1559 1560 1562 1564 1566 1568 1572 1575 1577 1579 1582 1583 1585 1585 1585 1586 1589 1590 1589 1588 1589 1589 1589 1588 1588 1586 1586 1584 1584 1583 1582
1555 1557 1558 1560 1561 1564 1565 1568 1572 1576 1578 1580 1582 1585 1587 1587 1587 1588 1590 1591 1591 1591 1590 1590 1589 1589 1588 1587 1587 1586 1585 1584 1584
1555 1556 1558 1559 1561 1563 1566 1568 1571 1575 1578 1581 1584 1586 1587 1588 1589 1590 1592 1592 1592 1592 1591 1591 1591 1591 1590 1589 1589 1588 1587 1586 1585
1554 1555 1557 1558 1560 1563 1566 1568 1571 1574 1577 1581 1584 1587 1588 1589 1589 1591 1593 1594 1593 1594 1593 1592 1593 1592 1592 1591 1591 1591 1589 1588 1587
1551 1553 1556 1558 1560 1562 1565 1568 1571 1574 1577 1581 1584 1587 1589 1589 1590 1592 1594 1595 1595 1595 1595 1594 1594 1594 1593 1593 1592 1592 1592 1590 1589
1549 1551 1554 1556 1559 1562 1565 1568 1571 1574 1577 1581 1584 1586 1589 1589 1590 1592 1595 1595 1596 1596 1597 1597 1596 1596 1595 1595 1594 1593 1593 1592 1592
1546 1549 1552 1555 1557 1560 1564 1568 1571 1573 1577 1580 1583 1586 1588 1589 1591 1593 1595 1596 1597 1597 1598 1599 1598 1597 1597 1596 1596 1595 1595 1594 1594
1543 1546 1549 1552 1555 1558 1563 1567 1571 1573 1576 1580 1583 1586 1588 1590 1591 1593 1596 1597 1599 1599 1599 1600 1600 1599 1598 1599 1597 1597 1596 1595 1595
1539 1542 1546 1549 1553 1556 1561 1565 1569 1573 1575 1577 1582 1585 1588 1590 1592 1594 1596 1598 1599 1599 1599 1600 1601 1600 1600 1600 1598 1597 1597 1596 1596
1534 1538 1541 1545 1550 1553 1559 1563 1567 1571 1575 1578 1580 1585 1588 1590 1592 1594 1596 1598 1599 1599 1599 1599 1600 1601 1601 1600 1600 1598 1597 1597 1597
1527 1532 1538 1541 1546 1550 1555 1561 1566 1569 1574 1578 1580 1584 1587 1589 1592 1594 1596 1597 1598 1598 1599 1598 1599 1601 1601 1601 1600 1598 1597 1597 1598
1526 1527 1533 1540 1543 1546 1552 1557 1563 1568 1571 1576 1579 1581 1585 1588 1590 1593 1595 1596 1597 1597 1598 1597 1598 1599 1600 1600 1600 1599 1598 1597 1597
1522 1526 1531 1537 1541 1545 1548 1555 1560 1565 1569 1573 1575 1578 1583 1585 1587 1589 1592 1594 1595 1596 1596 1596 1597 1597 1598 1599 1599 1599 1599 1598 1597
1515 1521 1524 1530 1538 1543 1546 1551 1556 1560 1565 1569 1572 1574 1575 1580 1583 1586 1589 1590 1591 1593 1594 1594 1595 1596 1597 1598 1599 1599 1599 1599 1598
1509 1514 1518 1522 1528 1536 1543 1548 1553 1558 1560 1564 1569 1570 1570 1575 1579 1581 1583 1586 1587 1590 1591 1592 1593 1594 1595 1596 1597 1598 1598 1600 1600
1502 1507 1511 1517 1522 1526 1534 1544 1547 1554 1558 1560 1564 1566 1569 1570 1574 1574 1577 1579 1582 1585 1587 1589 1591 1592 1593 1594 1595 1596 1597 1598 1599